This is the latest recevied weather packets stored in our database for station/object HB9FHL-13. If no packets are shown the sender has not sent any weather packets the latest 1 day(s).
| Time | Temp. | Humidity | Pressure | Rain* | Wind** | Luminosity | Snow |
|---|---|---|---|---|---|---|---|
| 1777981270 | 12.78° C | - | 1008.6 hPa | 0 mm | 1.34 m/s, 315° | - | - |
| 1777980970 | 12.78° C | - | 1006.7 hPa | 0 mm | 1.79 m/s, 350° | - | - |
| 1777980669 | 12.22° C | - | 1006.6 hPa | 0 mm | 1.79 m/s, 359° | - | - |
| 1777980369 | 12.78° C | - | 1007.8 hPa | 0 mm | 1.34 m/s, 10° | - | - |
| 1777980066 | 12.78° C | - | 1010 hPa | 0 mm | 1.34 m/s, 329° | - | - |
| 1777979769 | 12.78° C | - | 1010 hPa | 0 mm | 1.34 m/s, 13° | - | - |
| 1777979539 | 12.78° C | - | 1011.5 hPa | 0 mm | 0.89 m/s, 41° | - | - |
| 1777979464 | 12.78° C | - | 1011.5 hPa | 0 mm | 0.89 m/s, 41° | - | - |
| 1777979163 | 12.22° C | - | 1008 hPa | 0 mm | 0.89 m/s, 335° | - | - |
| 1777978938 | 12.22° C | - | 1005.8 hPa | 0 mm | 0.45 m/s, 343° | - | - |
| 1777978863 | 12.22° C | - | 1005.8 hPa | 0 mm | 0.45 m/s, 343° | - | - |
| 1777978562 | 11.11° C | - | 1008.5 hPa | 0 mm | 1.34 m/s, 4° | - | - |
| 1777978262 | 12.22° C | - | 1010.3 hPa | 0 mm | 1.34 m/s, 4° | - | - |
| 1777977963 | 12.22° C | - | 1006.1 hPa | 0 mm | 0.89 m/s, 17° | - | - |
| 1777977661 | 12.22° C | - | 1011 hPa | 0 mm | 0.89 m/s, 8° | - | - |
| 1777977361 | 11.67° C | - | 1008.7 hPa | 0 mm | 0.89 m/s, 8° | - | - |
| 1777977060 | 11.11° C | - | 1010.9 hPa | 0 mm | 1.34 m/s, 7° | - | - |
| 1777976759 | 12.22° C | - | 1011 hPa | 0 mm | 1.34 m/s, 18° | - | - |
| 1777976659 | 11.67° C | - | 1006.5 hPa | 0 mm | 1.34 m/s, 56° | - | - |
| 1777976459 | 11.67° C | - | 1006.5 hPa | 0 mm | 1.34 m/s, 56° | - | - |
| 1777976158 | 12.22° C | - | 1006.2 hPa | 0 mm | 1.34 m/s, 62° | - | - |
| 1777975858 | 12.22° C | - | 1006.2 hPa | 0 mm | 1.79 m/s, 10° | - | - |
| 1777975557 | 12.22° C | - | 1004.7 hPa | 0 mm | 1.34 m/s, 13° | - | - |
| 1777975257 | 12.22° C | - | 1010.1 hPa | 0 mm | 0.89 m/s, 13° | - | - |
| 1777974956 | 11.67° C | - | 1009.7 hPa | 0 mm | 1.34 m/s, 63° | - | - |
* Rain since midnight (hover to see other rain measurements)
** Current wind speed in m/s (hover to see current wind gust speed)